Regional Weather Roundup
Issued by NWS Cleveland, OH

Home | Current Version | Previous Version | Text Only | Print | Product List | Glossary Off
Versions: 1 2 3 4 5 6 7 8 9 10 11 12 13 14 15 16 17 18 19 20 21 22 23 24 25 26 27 28 29 30 31 32 33 34 35 36 37 38 39 40 41 42 43 44 45 46 47 48 49 50

000
ASUS41 KCLE 260510
RWRCLE
OHIO REGIONAL WEATHER ROUNDUP
NATIONAL WEATHER SERVICE CLEVELAND, OH
1200 AM EST WED NOV 26 2014

NOTE: "FAIR" INDICATES FEW OR NO CLOUDS BELOW 12,000 FEET WITH NO
SIGNIFICANT WEATHER AND/OR OBSTRUCTIONS TO VISIBILITY.

OHZ001>008-015>018-024>027-034-035-043-044-260600-
   NORTHWEST OHIO

CITY           SKY/WX    TMP DP  RH WIND       PRES   REMARKS
DEFIANCE       NOT AVBL
FINDLAY        CLOUDY    30  21  69 NW3       30.19F
TOLEDO EXPRESS CLOUDY    28  20  71 N3        30.22S
TOLEDO EXEC    CLOUDY    29  19  66 CALM      30.23S
LIMA           CLOUDY    28  20  71 CALM      30.19S
$$

OHZ009>014-019>023-028>033-038-089-260600-
   NORTHEAST OHIO

CITY           SKY/WX    TMP DP  RH WIND       PRES   REMARKS
CLE-HOPKINS    CLOUDY    31  22  69 NW5       30.21F WCI  26
CLE-LAKEFRONT  CLOUDY    33  23  66 NW3       30.19F
CUY CO. ARPT   NOT AVBL
LORAIN-ELYRIA  CLOUDY    30  23  75 CALM      30.20F
ASHTABULA      CLOUDY    32  24  72 NW5       30.19F WCI  27
AKRON-CANTON   PTCLDY    31  25  78 N6        30.16F WCI  25
WOOSTER        PTCLDY    29  24  82 N6        30.17F WCI  23
MANSFIELD      CLOUDY    28  23  81 N6        30.17S WCI  22
YOUNGSTOWN     CLOUDY    32  25  75 N8        30.16F WCI  25
$$

OHZ042-051>053-060>062-070>072-077>081-260600-
  SOUTHWEST OHIO

CITY           SKY/WX    TMP DP  RH WIND       PRES   REMARKS
CINC-COVINGTON CLOUDY    31  24  75 N6        30.16F WCI  25
CINC-LUNKEN    CLOUDY    33  27  78 NE5       30.20S WCI  29
HAMILTON       CLOUDY    30  27  88 CALM      30.19F
DAYTON         CLOUDY    29  25  85 NE6       30.18S WCI  23
WRIGHT-PAT AFB MOCLDY    29  25  84 NE5       30.18S WCI  24
DAYTON GENERAL CLOUDY    29  26  89 NE5       30.17S WCI  24
WILMINGTON     MOCLDY    29  25  85 NE8       30.17R WCI  21
$$

OHZ036-037-039>041-045>050-054>059-063>069-073>076-082>088-260600-
  CENTRAL AND SOUTHEAST OHIO

CITY           SKY/WX    TMP DP  RH WIND       PRES   REMARKS
COLUMBUS       PTCLDY    29  23  78 N6        30.18S WCI  23
OSU AIRPORT    PTCLDY    27  23  85 N7        30.18R WCI  19
BOLTON FIELD   NOT AVBL
RICKENBACK AFB CLEAR     28  25  86 N6        30.18S WCI  22
NEWARK         MOCLDY    31  25  78 N5        30.17S WCI  26
MARION         MOCLDY    28  22  78 N6        30.18F WCI  22
LANCASTER      PTCLDY    28  24  85 N3        30.18R
ZANESVILLE     MOCLDY    29  24  82 CALM      30.17S
NEW PHILLY     MOCLDY    31  26  82 CALM      30.19S
$$


USA.gov is the U.S. government's official web portal to all federal, state and local government web resources and services.